Sivas, Turkey

12:16 AM +03 on October 19, 2017 (GMT +0300)
Sivas

Weather History for LTAR - August, 2013

Change the Weather History Date:

Friday, August 30, 2013

  Actual Average Record
Temperature  
Mean Temperature 72 °F -  
Max Temperature 91 °F 76 °F - ()
Min Temperature 54 °F 46 °F - ()
Cooling Degree Days 8    
Growing Degree Days 22 (Base 50)    
Moisture  
Dew Point 37 °F    
Average Humidity 32    
Maximum Humidity 64    
Minimum Humidity 4    
Precipitation  
Precipitation 0.00 in 0.02 in - ()
Sea Level Pressure  
Sea Level Pressure 30.03 in    
Wind  
Wind Speed 6 mph ()    
Max Wind Speed 16 mph    
Max Gust Speed -    
Visibility 9.0 miles    
Events      
T = Trace of Precipitation, MM = Missing Value Source: Averaged Metar Reports

Daily Weather History Graph

Daily Weather History Graph

Search for Another Location

Airport or City:

Trip Planner

Search our weather history database for the weather conditions in past years. The results will help you decide how hot, cold, wet, or windy it might be!

Date:

Astronomy

Aug. 30, 2013 Rise Set
Actual Time 5:58 AM EEST 7:06 PM EEST
Civil Twilight 5:30 AM EEST 7:34 PM EEST
Nautical Twilight 4:57 AM EEST 8:07 PM EEST
Astronomical Twilight 4:22 AM EEST 8:42 PM EEST
Moon 12:20 AM EEST (8/30) 3:06 PM EEST (8/30)
Length of Visible Light 14h 04m
Length of Day
13h 08m
Waning Crescent, 32% of the Moon is Illuminated
Aug 30
Waning Crescent
Sep 5
New
Sep 12
First Quarter
Sep 19
Full
Sep 27
Last Quarter

Hourly Weather History & Observations

Time (EEST) Temp. Dew Point Humidity Pressure Visibility Wind Dir Wind Speed Gust Speed Precip Events Conditions
12:50 AM 60.8 °F 35.6 °F 39% 30.09 in - ENE 6.9 mph - N/A   Clear
2:50 AM 57.2 °F 35.6 °F 44% 30.06 in - SE 5.8 mph - N/A   Clear
3:50 AM 53.6 °F 35.6 °F 51% 30.06 in - South 5.8 mph - N/A   Clear
4:50 AM 55.4 °F 35.6 °F 47% 30.06 in - ESE 6.9 mph - N/A   Clear
5:50 AM 51.8 °F 35.6 °F 54% 30.06 in - ENE 4.6 mph - N/A   Clear
6:50 AM 59.0 °F 33.8 °F 39% 30.06 in - East 5.8 mph - N/A   Clear
7:50 AM 68.0 °F 35.6 °F 30% 30.06 in - East 3.5 mph - N/A   Clear
8:50 AM 73.4 °F 30.2 °F 20% 30.06 in - East 4.6 mph - N/A   Clear
9:00 AM 68 °F 38 °F 22%  in 9 mi SSE 2.3 mph - -  
9:50 AM 75.2 °F 30.2 °F 19% 30.06 in - ENE 5.8 mph - N/A   Clear
10:50 AM 78.8 °F 28.4 °F 16% 30.06 in - East 5.8 mph - N/A   Clear
11:50 AM 78.8 °F 33.8 °F 20% 30.04 in - Variable 5.8 mph - N/A   Clear
12:50 PM 80.6 °F 30.2 °F 16% 30.04 in - South 5.8 mph - N/A   Clear
1:50 PM 82.4 °F 26.6 °F 13% 30.04 in - WNW 8.1 mph - N/A   Clear
2:50 PM 84.2 °F 26.6 °F 12% 30.01 in - WSW 8.1 mph - N/A   Clear
3:00 PM 92 °F 26 °F 4%  in 9 mi WSW 4.6 mph - -  
3:50 PM 84.2 °F 28.4 °F 13% 30.01 in - West 12.7 mph - N/A   Clear
4:50 PM 82.4 °F 35.6 °F 19% 29.98 in - NNW 15.0 mph - N/A   Clear
5:50 PM 80.6 °F 37.4 °F 21% 29.98 in - North 13.8 mph - N/A   Clear
6:50 PM 73.4 °F 50.0 °F 44% 29.98 in - NNW 16.1 mph - N/A   Clear
7:50 PM 68.0 °F 50.0 °F 52% 29.98 in - North 9.2 mph - N/A   Clear
8:50 PM 64.4 °F 51.8 °F 64% 30.01 in - North 8.1 mph - N/A   Clear
9:00 PM 76 °F 46 °F 24%  in 9 mi NE 2.3 mph - -   Scattered Clouds
9:50 PM 64.4 °F 46.4 °F 52% 30.01 in - NNE 5.8 mph - N/A   Clear
10:50 PM 62.6 °F 42.8 °F 48% 30.01 in - ENE 2.3 mph - N/A   Clear
11:50 PM 62.6 °F 44.6 °F 52% 30.01 in - NNE 2.3 mph - N/A   Clear